Papa, Hungary

4:23 PM CEST on June 27, 2017 (GMT +0200)
Papa

Weather History for LHPA - May, 2013

Change the Weather History Date:

Wednesday, May 22, 2013

  Actual Average Record
Temperature  
Mean Temperature 55 °F -  
Max Temperature 66 °F - - ()
Min Temperature 44 °F - - ()
Degree Days  
Heating Degree Days 10    
Growing Degree Days 5 (Base 50)    
Moisture  
Dew Point 47 °F    
Average Humidity 71    
Maximum Humidity 100    
Minimum Humidity 49    
Precipitation  
Precipitation 0.00 in - - ()
Sea Level Pressure  
Sea Level Pressure 29.74 in    
Wind  
Wind Speed 4 mph ()    
Max Wind Speed 13 mph    
Max Gust Speed -    
Visibility 6.1 miles    
Events      
T = Trace of Precipitation, MM = Missing Value Source: Averaged Metar Reports

Daily Weather History Graph

Daily Weather History Graph

Search for Another Location

Airport or City:

Trip Planner

Search our weather history database for the weather conditions in past years. The results will help you decide how hot, cold, wet, or windy it might be!

Date:

Astronomy

May. 22, 2013 Rise Set
Actual Time 5:06 AM CEST 8:27 PM CEST
Civil Twilight 4:28 AM CEST 9:05 PM CEST
Nautical Twilight 3:39 AM CEST 9:54 PM CEST
Astronomical Twilight 2:36 AM CEST 10:58 PM CEST
Moon 5:19 PM CEST (5/22) 3:12 AM CEST (5/22)
Length of Visible Light 16h 36m
Length of Day
15h 21m
Waxing Gibbous, 89% of the Moon is Illuminated
May 22
Waxing Gibbous
May 25
Full
May 31
Last Quarter
Jun 8
New
Jun 16
First Quarter

Hourly Weather History & Observations

Time (CEST) Temp. Windchill Dew Point Humidity Pressure Visibility Wind Dir Wind Speed Gust Speed Precip Events Conditions
12:15 AM 55.4 °F - 46.4 °F 72% 29.83 in - WSW 4.5 mph - N/A   Clear
12:45 AM 53.6 °F - 46.4 °F 77% 29.80 in - WNW 2.2 mph - N/A   Clear
1:15 AM 51.8 °F - 46.4 °F 82% 29.80 in - Calm Calm - N/A   Clear
1:45 AM 50.0 °F - 46.4 °F 87% 29.80 in - East 2.2 mph - N/A   Clear
2:15 AM 48.2 °F - 46.4 °F 93% 29.77 in - Calm Calm - N/A   Clear
2:45 AM 48.2 °F - 46.4 °F 93% 29.77 in - Calm Calm - N/A   Clear
3:15 AM 48.2 °F - 46.4 °F 93% 29.77 in - Calm Calm - N/A   Clear
3:45 AM - - - N/A% - 3.1 mi Variable 2.2 mph - N/A   Overcast
4:15 AM 46.4 °F - 46.4 °F 100% 29.77 in - Calm Calm - N/A   Clear
4:45 AM 46.4 °F - 46.4 °F 100% 29.74 in - Calm Calm - N/A   Clear
5:15 AM 44.6 °F - 44.6 °F 100% 29.74 in - SSE 2.2 mph - N/A   Clear
5:45 AM 44.6 °F - 44.6 °F 100% 29.77 in - South 2.2 mph - N/A   Clear
6:15 AM 46.4 °F 44.4 °F 46.4 °F 100% 29.77 in - SSE 4.5 mph - N/A   Clear
6:45 AM - - - N/A% - 6.2 mi Variable 4.5 mph - N/A   Overcast
7:15 AM 51.8 °F - 50.0 °F 94% 29.77 in - Calm Calm - N/A   Clear
7:45 AM 55.4 °F - 50.0 °F 82% 29.77 in - South 2.2 mph - N/A   Clear
8:15 AM 59.0 °F - 48.2 °F 67% 29.77 in - NNW 2.2 mph - N/A   Clear
8:45 AM 57.2 °F - 50.0 °F 77% 29.77 in - NW 8.9 mph - N/A   Clear
9:15 AM 57.2 °F - 48.2 °F 72% 29.77 in 6.2 mi North 4.5 mph - N/A   Mostly Cloudy
9:45 AM - - - N/A% - 6.2 mi NNW 6.7 mph - N/A   Mostly Cloudy
10:15 AM 60.8 °F - 46.4 °F 59% 29.77 in 6.2 mi North 6.7 mph - N/A   Mostly Cloudy
10:45 AM 60.8 °F - 48.2 °F 63% 29.74 in 6.2 mi NNW 8.9 mph - N/A   Mostly Cloudy
11:15 AM 62.6 °F - 48.2 °F 59% 29.74 in 6.2 mi NNW 8.9 mph - N/A   Mostly Cloudy
11:45 AM 60.8 °F - 48.2 °F 63% 29.74 in 6.2 mi NNW 11.2 mph - N/A   Mostly Cloudy
12:15 PM 62.6 °F - 48.2 °F 59% 29.74 in 6.2 mi NNW 11.2 mph - N/A   Mostly Cloudy
12:45 PM - - - N/A% - 6.2 mi NNW 6.7 mph - N/A   Mostly Cloudy
1:15 PM 64.4 °F - 48.2 °F 56% 29.74 in 6.2 mi NW 6.7 mph - N/A   Scattered Clouds
1:45 PM 64.4 °F - 50.0 °F 59% 29.74 in 6.2 mi WNW 4.5 mph - N/A   Scattered Clouds
2:15 PM 64.4 °F - 48.2 °F 56% 29.74 in 6.2 mi NNW 6.7 mph - N/A   Mostly Cloudy
2:45 PM 66.2 °F - 46.4 °F 49% 29.74 in 6.2 mi West 2.2 mph - N/A   Scattered Clouds
3:15 PM 66.2 °F - 46.4 °F 49% 29.71 in 6.2 mi West 6.7 mph - N/A   Mostly Cloudy
3:45 PM - - - N/A% - 6.2 mi West 6.7 mph - N/A   Mostly Cloudy
4:15 PM 62.6 °F - 50.0 °F 63% 29.71 in 6.2 mi West 11.2 mph - N/A   Mostly Cloudy
4:45 PM 62.6 °F - 48.2 °F 59% 29.68 in 6.2 mi NNW 4.5 mph - N/A   Scattered Clouds
5:15 PM 64.4 °F - 44.6 °F 49% 29.68 in 6.2 mi North 2.2 mph - N/A   Partly Cloudy
5:45 PM 64.4 °F - 44.6 °F 49% 29.68 in 6.2 mi WNW 6.7 mph - N/A   Partly Cloudy
6:15 PM 64.4 °F - 44.6 °F 49% 29.68 in 6.2 mi West 6.7 mph - N/A   Partly Cloudy
6:45 PM - - - N/A% - 6.2 mi West 6.7 mph - N/A   Scattered Clouds
7:15 PM 64.4 °F - 44.6 °F 49% 29.68 in 6.2 mi West 6.7 mph - N/A   Partly Cloudy
7:45 PM 60.8 °F - 46.4 °F 59% 29.71 in 6.2 mi WSW 4.5 mph - N/A   Scattered Clouds
8:15 PM 59.0 °F - 48.2 °F 67% 29.71 in - Calm Calm - N/A   Clear
8:45 PM 57.2 °F - 46.4 °F 67% 29.71 in - Calm Calm - N/A   Clear
9:15 PM 57.2 °F - 48.2 °F 72% 29.74 in - West 2.2 mph - N/A   Clear
9:45 PM - - - N/A% - - West 6.7 mph - N/A   Clear
10:15 PM 57.2 °F - 44.6 °F 63% 29.74 in - North 8.9 mph - N/A   Clear
10:45 PM 55.4 °F - 44.6 °F 67% 29.74 in - NNW 8.9 mph - N/A   Clear
11:15 PM 55.4 °F - 46.4 °F 72% 29.74 in - NNW 8.9 mph - N/A   Clear
11:45 PM 55.4 °F - 46.4 °F 72% 29.74 in - NNW 13.4 mph - N/A   Clear